TRINITY LAKE (CLE)

Elevation: 2370' · TRINITY R basin · Operator: US Bureau of Reclamation

Provisional data, subject to change.
Query executed Sunday at 23:31:36   clock

Select a sensor type for a plot of data.
Note: Reservoir Flows are daily averages.

Earlier

Date RES ELE    STORAGE    RES CHG    OUTFLOW    INFLOW    EVAP    FNF    RIV REL    PPT INC    SPILL    DIS PWR   
 FEET   AF   AF   CFS   CFS   CFS   CFS   CFS   INCHES   CFS   CFS  
08/01/2015 2233.62 821167 -3803 1972 121 66 121 203 0.00 0 1769
08/02/2015 2233.11 817214 -3953 2057 146 82 146 305 0.00 0 1752
08/03/2015 2232.55 812895 -4319 2179 38 36 188 e 486 0.00 0 1693
08/04/2015 2232.06 809121 -3774 1860 25 68 188 e 293 0.00 0 1567
08/05/2015 2231.53 805063 -4058 2038 44 52 188 e 280 0.00 0 1758
08/06/2015 2231.06 801467 -3596 1889 121 45 176 e 301 0.00 0 1588
08/07/2015 2230.53 797435 -4032 2212 230 51 175 e 447 0.00 0 1765
08/08/2015 2229.97 793179 -4256 2130 31 47 188 e 375 0.00 0 1755
08/09/2015 2229.41 788948 -4231 3077 984 40 188 e 1311 0.00 0 1766
08/10/2015 2228.88 784949 -3999 1996 11 31 188 e 324 0.00 0 1672
08/11/2015 2228.39 781269 -3680 2881 1061 35 100 e 1218 0.00 0 1663
08/12/2015 2227.88 777444 -3825 1971 94 51 94 300 0.00 0 1671
08/13/2015 2227.33 773338 -- 2036 36 70 36 300 0.00 0 1736
08/14/2015 2226.81 769465 -3873 1985 95 63 95 296 0.00 0 1689
08/15/2015 2226.28 765533 -3932 2054 111 39 111 298 0.00 0 1756
08/16/2015 2225.76 761685 -3848 2148 256 48 256 595 0.00 0 1553
08/17/2015 2224.87 755126 -6559 3475 229 61 229 1853 0.00 0 1622
08/18/2015 2223.94 748311 -6815 4025 641 52 641 2498 0.00 0 1527
08/19/2015 2223.20 742919 -5392 2857 167 28 167 1309 0.00 0 1548
08/20/2015 2222.58 738420 -4499 2469 224 23 224 859 0.00 0 1610
08/21/2015 2221.84 733067 -5353 2596 -88 15 -- 923 0.00 0 1673
08/22/2015 2221.12 727885 -5182 2653 86 46 -- 1000 0.00 0 1653
08/23/2015 2220.40 722729 -5156 2649 119 69 -- 1000 0.00 0 1649
08/24/2015 2219.66 717454 -5275 2690 90 59 -- 998 0.00 0 1692
08/25/2015 2218.91 712133 -5321 2696 88 75 -- 1052 0.00 0 1644
08/26/2015 2218.14 706713 -5420 2691 24 66 -- 1104 0.00 0 1587
08/27/2015 2217.38 701402 -5311 2657 34 55 -- 1103 0.00 0 1554
08/28/2015 2216.63 696191 -5211 2704 132 55 -- 1102 0.00 0 1602
08/29/2015 2215.82 690600 -5591 2673 -91 55 -- 1100 0.00 0 1573
08/30/2015 -- -- -- -- -- -- -- -- -- -- --

Later | Latest

Warning! This data is preliminary and subject to revision.

Show CLE Map | Plot CLE Data | 1 Month CLE Data | Real-Time CLE Data | CLE Info